Weather History for Syracuse, NY

Change the Weather History Date:

Thursday, June 27, 2013

  Actual Average Record
Temperature  
Mean Temperature 75 °F 70 °F  
Max Temperature 84 °F 80 °F 95 °F (1941)
Min Temperature 65 °F 59 °F 47 °F (1982)
Degree Days  
Heating Degree Days 0 1  
Month to date heating degree days 61 58  
Since 1 June heating degree days 61 58  
Since 1 July heating degree days 6147 6648  
Cooling Degree Days 10 5  
Month to date cooling degree days 92 95  
Year to date cooling degree days 144 125  
Since 1 June cooling degree days 92 95  
Growing Degree Days 24 (Base 50)    
Moisture  
Dew Point 66 °F    
Average Humidity 76    
Maximum Humidity 93    
Minimum Humidity 58    
Precipitation  
Precipitation 0.49 in 0.11 in 1.41 in (2006)
Month to date precipitation 5.60 2.97  
Year to date precipitation 19.54 16.90  
Snow  
Snow 0.00 in 0.00 in 0.00 in (2002)
Month to date snowfall 0.0 0.0  
Since 1 June snowfall 0.0 0.0  
Since 1 July snowfall 115.4 123.8  
Snow Depth -    
Sea Level Pressure  
Sea Level Pressure 29.72 in    
Wind  
Wind Speed 4 mph (ENE)    
Max Wind Speed 20 mph    
Max Gust Speed 28 mph    
Visibility 9 miles    
Events Rain    
T = Trace of Precipitation, MM = Missing Value Source: NWS Daily Summary

Daily Weather History Graph

Daily Weather History Graph

Search for Another Location

Airport:

Trip Planner

Search our weather history database for the weather conditions in past years. The results will help you decide how hot, cold, wet, or windy it might be!

Date:

Astronomy

Jun. 27, 2013 Rise Set
Actual Time 5:26 AM EDT 8:48 PM EDT
Civil Twilight 4:51 AM EDT 9:23 PM EDT
Nautical Twilight 4:05 AM EDT 10:09 PM EDT
Astronomical Twilight 3:08 AM EDT 11:06 PM EDT
Moon 11:34 PM EDT (6/27) 10:33 AM EDT (6/27)
Length of Visible Light 16h 31m
Length of Day
15h 21m
Waning Gibbous, 76% of the Moon is Illuminated
Jun 27
Waning Gibbous
Jun 30
Last Quarter
Jul 8
New
Jul 15
First Quarter
Jul 22
Full

Hourly Weather History & Observations

Time (EDT) Temp. Heat Index Dew Point Humidity Pressure Visibility Wind Dir Wind Speed Gust Speed Precip Events Conditions
12:54 AM 69.1 °F - 64.0 °F 84% 29.79 in 10.0 mi Calm Calm - N/A   Mostly Cloudy
1:54 AM 68.0 °F - 64.0 °F 87% 29.79 in 10.0 mi Calm Calm - N/A   Overcast
2:54 AM 66.0 °F - 63.0 °F 90% 29.78 in 9.0 mi Calm Calm - N/A   Mostly Cloudy
3:54 AM 64.9 °F - 62.1 °F 90% 29.77 in 9.0 mi East 4.6 mph - N/A   Mostly Cloudy
4:54 AM 64.9 °F - 62.1 °F 90% 29.77 in 10.0 mi SE 3.5 mph - N/A   Scattered Clouds
5:54 AM 64.9 °F - 62.1 °F 90% 29.77 in 10.0 mi ESE 4.6 mph - N/A   Mostly Cloudy
6:54 AM 68.0 °F - 63.0 °F 84% 29.78 in 10.0 mi Calm Calm - N/A   Mostly Cloudy
7:54 AM 71.1 °F - 64.0 °F 78% 29.78 in 10.0 mi East 3.5 mph - N/A   Mostly Cloudy
8:54 AM 73.9 °F - 66.0 °F 76% 29.77 in 10.0 mi ESE 3.5 mph - N/A   Overcast
9:54 AM 78.1 °F - 66.9 °F 68% 29.75 in 10.0 mi ENE 5.8 mph - N/A   Overcast
10:54 AM 81.0 °F 83.8 °F 68.0 °F 65% 29.74 in 10.0 mi ENE 3.5 mph - N/A   Overcast
11:54 AM 82.9 °F 86.5 °F 69.1 °F 63% 29.73 in 10.0 mi Variable 4.6 mph - N/A   Overcast
12:54 PM 82.0 °F 84.5 °F 66.9 °F 60% 29.71 in 10.0 mi ESE 4.6 mph - N/A   Overcast
1:54 PM 81.0 °F 84.1 °F 69.1 °F 67% 29.70 in 10.0 mi NE 6.9 mph - N/A   Overcast
2:54 PM 77.0 °F - 68.0 °F 74% 29.70 in 10.0 mi NE 10.4 mph - 0.00 in Rain Light Rain
3:54 PM 79.0 °F - 69.1 °F 72% 29.69 in 10.0 mi NNW 4.6 mph - 0.00 in   Overcast
4:54 PM 78.1 °F - 69.1 °F 74% 29.68 in 10.0 mi North 3.5 mph - N/A   Overcast
5:54 PM 77.0 °F - 70.0 °F 79% 29.66 in 10.0 mi North 6.9 mph - 0.00 in Rain Light Rain
6:54 PM 75.9 °F - 71.1 °F 85% 29.65 in 10.0 mi NNE 4.6 mph - 0.00 in Rain Light Rain
7:54 PM 70.0 °F - 66.0 °F 87% 29.67 in 7.0 mi SE 9.2 mph - 0.02 in Rain Light Rain
8:54 PM 68.0 °F - 64.0 °F 87% 29.66 in 7.0 mi East 4.6 mph - 0.12 in Rain Rain
9:54 PM 68.0 °F - 64.9 °F 90% 29.66 in 5.0 mi SE 3.5 mph - 0.08 in Rain Rain
10:54 PM 66.9 °F - 64.9 °F 93% 29.63 in 5.0 mi East 4.6 mph - 0.09 in Rain Light Rain
11:54 PM 66.9 °F - 64.0 °F 90% 29.60 in 7.0 mi East 3.5 mph - 0.11 in Rain Rain